1486645200.73,9068,10.81,73780.0,-5.43,-8.85,-8.75,0,*6A
1486645201.93,9069,10.75,73782.8,-5.43,-8.93,-8.89,0,*6F
1486645203.16,9070,10.75,73782.3,-5.45,-8.89,-8.93,0,*61
1486645204.43,9071,10.75,73780.5,-5.45,-9.11,-9.11,0,*6B
1486645205.62,9072,10.75,73780.3,-5.43,-8.75,-8.75,0,*6E
1486645206.84,9073,10.75,73780.3,-5.43,-8.63,-8.51,0,*6E
1486645208.05,9074,10.75,73780.0,-5.45,-8.67,-8.63,0,*6A
1486645209.24,9075,10.81,73782.5,-5.43,-8.75,-8.63,0,*6E
1486645210.49,9076,10.75,73782.0,-5.45,-8.51,-8.41,0,*6D
1486645211.71,9077,10.81,73784.8,-5.43,-8.51,-8.45,0,*6E
1486645212.92,9078,10.81,73782.0,-5.45,-8.67,-8.63,0,*66
1486645214.11,9079,10.75,73780.5,-5.43,-8.63,-8.63,0,*65
1486645215.36,9080,10.81,73784.8,-5.45,-8.51,-8.41,0,*64
1486645216.61,9081,10.81,73782.8,-5.45,-8.51,-8.37,0,*64
1486645217.8,9082,10.81,73782.0,-5.43,-8.45,-8.33,0,*60
1486645219.02,9083,10.75,73782.8,-5.43,-8.51,-8.45,0,*65
1486645220.24,9084,10.75,73780.3,-5.43,-8.63,-8.51,0,*66
1486645221.46,9085,10.75,73780.0,-5.45,-8.37,-8.25,0,*63
1486645222.7,9086,10.81,73786.3,-5.45,-8.51,-8.25,0,*60
1486645223.89,9087,10.75,73780.8,-5.43,-8.45,-8.33,0,*65
1486645225.08,9088,10.75,73782.8,-5.43,-8.37,-8.25,0,*68
1486645226.31,9089,10.75,73782.0,-5.43,-8.51,-8.37,0,*6A
1486645227.5,9090,10.81,73782.3,-5.43,-8.45,-8.45,0,*62
1486645228.71,9091,10.81,73782.5,-5.45,-8.75,-8.59,0,*6B
1486645229.91,9092,10.81,73782.8,-5.43,-8.59,-8.45,0,*6D
1486645231.12,9093,10.81,73784.3,-5.43,-8.59,-8.51,0,*69
1486645232.31,9094,10.81,73784.5,-5.43,-8.63,-8.63,0,*66
1486645233.5,9095,10.81,73786.3,-5.43,-8.33,-8.37,0,*63
1486645234.72,9096,10.81,73788.3,-5.43,-8.21,-8.11,0,*67
1486645235.94,9097,10.81,73790.3,-5.41,-8.37,-8.33,0,*63
1486645237.17,9098,10.75,73784.8,-5.41,-8.33,-8.11,0,*68
1486645238.36,9099,10.81,73786.3,-5.43,-8.45,-8.33,0,*6A
1486645239.55,9100,10.75,73786.0,-5.43,-8.45,-8.33,0,*6B
1486645240.77,9101,10.81,73784.8,-5.43,-8.59,-8.51,0,*63
1486645242.01,9102,10.81,73788.5,-5.45,-9.23,-9.37,0,*6B
1486645243.22,9103,10.81,73786.8,-5.43,-9.01,-9.01,0,*69
1486645244.4,9104,10.75,73784.8,-5.43,-8.75,-8.63,0,*69
1486645245.6,9105,10.81,73786.5,-5.43,-8.71,-8.59,0,*65
1486645246.82,9106,10.81,73786.5,-5.45,-8.41,-8.37,0,*6B
1486645248.01,9107,10.75,73784.0,-5.43,-8.37,-8.33,0,*69
1486645249.23,9108,10.81,73786.5,-5.43,-8.59,-8.51,0,*6A
1486645250.45,9109,10.75,73784.5,-5.45,-8.41,-8.37,0,*64
1486645251.68,9110,10.75,73780.3,-5.43,-8.25,-8.07,0,*6B
1486645252.86,9111,10.75,73782.3,-5.43,-8.33,-8.25,0,*6D
1486645254.08,9112,10.81,73784.3,-5.43,-8.59,-8.51,0,*61
1486645255.32,9113,10.81,73782.0,-5.45,-8.51,-8.29,0,*61
1486645256.51,9114,10.75,73780.5,-5.43,-8.37,-8.25,0,*6C
1486645257.73,9115,10.81,73782.0,-5.43,-8.63,-8.51,0,*6F
1486645258.92,9116,10.75,73776.8,-5.43,-8.75,-8.63,0,*6A
1486645260.13,9117,10.75,73776.8,-5.43,-8.51,-8.33,0,*68
1486645261.33,9118,10.81,73782.3,-5.43,-8.37,-8.25,0,*60
1486645262.51,9119,10.81,73782.0,-5.43,-8.63,-8.59,0,*6B
1486645263.73,9120,10.81,73780.0,-5.43,-8.59,-8.51,0,*60
1486645264.97,9121,10.81,73782.5,-5.45,-8.51,-8.55,0,*6B
1486645266.16,9122,10.81,73784.3,-5.43,-8.63,-8.59,0,*63
1486645267.38,9123,10.81,73786.3,-5.43,-8.51,-8.25,0,*68
1486645268.57,9124,10.75,73784.5,-5.43,-8.33,-8.21,0,*6F
1486645269.75,9125,10.75,73782.8,-5.43,-8.45,-8.33,0,*6C
1486645270.98,9126,10.81,73782.8,-5.43,-8.51,-8.37,0,*6E
1486645272.2,9127,10.75,73780.5,-5.41,-8.59,-8.45,0,*60
1486645273.41,9128,10.75,73778.8,-5.41,-8.75,-8.71,0,*66
1486645274.63,9129,10.81,73780.8,-5.41,-8.75,-8.71,0,*67
1486645275.87,9130,10.81,73780.0,-5.45,-8.89,-8.81,0,*67
1486645277.07,9131,10.81,73780.5,-5.43,-8.89,-8.75,0,*6B
1486645278.26,9132,10.75,73778.5,-5.43,-8.85,-8.75,0,*64
1486645279.45,9133,10.75,73776.8,-5.43,-8.59,-8.45,0,*67
1486645280.64,9134,10.81,73776.3,-5.43,-8.45,-8.33,0,*6C
1486645281.89,9135,10.81,73776.8,-5.43,-8.51,-8.51,0,*6C
1486645283.08,9136,10.75,73776.3,-5.43,-8.59,-8.45,0,*62
1486645284.27,9137,10.81,73774.8,-5.43,-8.63,-8.59,0,*67
1486645285.51,9138,10.81,73776.3,-5.45,-8.63,-8.51,0,*66
1486645286.7,9139,10.81,73778.5,-5.43,-8.63,-8.59,0,*69
1486645287.89,9140,10.81,73780.3,-5.43,-8.75,-8.63,0,*69
1486645289.11,9141,10.81,73782.3,-5.45,-8.63,-8.55,0,*6C
1486645290.33,9142,10.81,73778.8,-5.43,-8.51,-8.37,0,*6C
1486645291.52,9143,10.75,73776.5,-5.43,-8.59,-8.45,0,*60
1486645292.74,9144,10.75,73778.5,-5.43,-8.63,-8.51,0,*6B
1486645293.93,9145,10.75,73772.3,-5.43,-8.45,-8.33,0,*6A
1486645295.12,9146,10.75,73778.5,-5.43,-8.71,-8.59,0,*62
1486645296.31,9147,10.75,73774.8,-5.43,-8.75,-8.59,0,*67
1486645297.56,9148,10.75,73776.0,-5.45,-8.55,-8.51,0,*64
1486645298.77,9149,10.75,73772.8,-5.45,-8.63,-8.55,0,*64
1486645299.96,9150,10.75,73774.8,-5.43,-8.59,-8.45,0,*62
1486645301.2,9151,10.81,73772.3,-5.45,-8.81,-8.67,0,*60
1486645302.39,9152,10.81,73772.5,-5.43,-8.63,-8.59,0,*64
1486645303.6,9153,10.75,73768.8,-5.45,-8.67,-8.63,0,*6E
1486645304.8,9154,10.81,73774.5,-5.43,-8.85,-8.71,0,*60
1486645305.98,9155,10.81,73772.5,-5.43,-8.75,-8.75,0,*6A
1486645307.19,9156,10.81,73774.0,-5.45,-8.75,-8.67,0,*6C
1486645308.43,9157,10.81,73772.8,-5.45,-8.81,-8.75,0,*65
1486645309.64,9158,10.81,73772.0,-5.45,-8.67,-8.67,0,*61
1486645310.86,9159,10.75,73768.0,-5.45,-8.67,-8.63,0,*64
1486645312.1,9160,10.81,73774.0,-5.45,-8.63,-8.51,0,*6B
1486645313.32,9161,10.81,73774.5,-5.45,-8.55,-8.41,0,*6E
1486645314.57,9162,10.75,73770.5,-5.45,-8.51,-8.29,0,*67
1486645315.78,9163,10.75,73774.3,-5.45,-8.41,-8.29,0,*67
1486645317.03,9164,10.81,73772.8,-5.45,-8.55,-8.51,0,*6A
1486645318.28,9165,10.75,73772.3,-5.45,-8.63,-8.51,0,*6E
1486645319.49,9166,10.81,73774.8,-5.45,-8.67,-8.67,0,*6C
1486645320.7,9167,10.81,73778.8,-5.45,-8.63,-8.55,0,*68
1486645321.94,9168,10.75,73776.5,-5.45,-8.81,-8.67,0,*6A
1486645323.15,9169,10.75,73778.8,-5.45,-8.75,-8.67,0,*60
1486645324.34,9170,10.75,73774.3,-5.43,-8.89,-8.75,0,*6E
1486645325.59,9171,10.75,73774.0,-5.45,-8.89,-8.81,0,*62
1486645326.81,9172,10.81,73774.5,-5.45,-8.89,-8.93,0,*62
1486645328.02,9173,10.81,73774.8,-5.45,-8.67,-8.67,0,*68
1486645329.24,9174,10.81,73774.5,-5.45,-8.55,-8.41,0,*6A
1486645330.46,9175,10.75,73768.5,-5.45,-8.55,-8.41,0,*6B
1486645331.68,9176,10.81,73774.3,-5.45,-8.55,-8.41,0,*68
1486645332.9,9177,10.75,73768.5,-5.45,-8.41,-8.29,0,*62
1486645334.15,9178,10.75,73774.8,-5.45,-8.51,-8.41,0,*62
1486645335.36,9179,10.81,73778.3,-5.45,-8.63,-8.63,0,*62
1486645336.61,9180,10.81,73776.3,-5.45,-8.51,-8.41,0,*65
1486645337.84,9181,10.75,73778.8,-5.45,-8.41,-8.37,0,*64
1486645339.09,9182,10.75,73776.0,-5.45,-8.51,-8.37,0,*66
1486645340.31,9183,10.81,73774.5,-5.45,-8.41,-8.29,0,*69
1486645341.52,9184,10.81,73774.5,-5.45,-8.63,-8.55,0,*65
1486645342.74,9185,10.81,73776.5,-5.45,-8.55,-8.41,0,*64
1486645343.96,9186,10.81,73776.8,-5.45,-8.63,-8.55,0,*67
1486645345.18,9187,10.81,73778.0,-5.45,-8.55,-8.41,0,*66
1486645346.43,9188,10.75,73772.0,-5.45,-8.51,-8.37,0,*6C
1486645347.64,9189,10.75,73772.0,-5.45,-8.67,-8.63,0,*69
1486645348.86,9190,10.81,73776.3,-5.45,-8.75,-8.63,0,*62
1486645350.1,9191,10.75,73774.3,-5.45,-8.93,-8.81,0,*67
1486645351.32,9192,10.81,73778.3,-5.45,-8.67,-8.63,0,*63
1486645352.58,9193,10.81,73778.0,-5.45,-8.81,-8.81,0,*66
1486645353.79,9194,10.75,73776.0,-5.45,-9.31,-9.31,0,*61
1486645355.02,9195,10.81,73778.3,-5.45,-9.05,-9.05,0,*60
1486645356.23,9196,10.75,73776.3,-5.49,-8.41,-8.29,0,*61
1486645357.47,9197,10.75,73774.3,-5.45,-8.81,-8.75,0,*69
1486645358.69,9198,10.81,73772.5,-5.49,-8.97,-8.85,0,*62
1486645359.96,9199,10.81,73776.5,-5.49,-9.15,-9.11,0,*64
1486645361.18,9200,10.75,73772.8,-5.49,-8.97,-8.97,0,*63
1486645362.4,9201,10.75,73776.8,-5.49,-8.97,-9.01,0,*6C
1486645363.61,9202,10.81,73782.3,-5.49,-8.67,-8.59,0,*6C
1486645364.82,9203,10.75,73782.5,-5.49,-8.41,-8.29,0,*6E
1486645366.04,9204,10.75,73778.5,-5.49,-8.59,-8.45,0,*6A
1486645367.27,9205,10.81,73780.3,-5.51,-8.81,-8.81,0,*6F
1486645368.47,9206,10.75,73778.3,-5.51,-8.59,-8.45,0,*61
1486645369.65,9207,10.75,73782.0,-5.51,-8.59,-8.59,0,*6D
1486645370.85,9208,10.81,73784.0,-5.51,-8.85,-8.59,0,*63
1486645372.07,9209,10.81,73780.8,-5.49,-8.45,-8.41,0,*6E
1486645373.29,9210,10.81,73780.5,-5.49,-8.93,-8.85,0,*65
1486645374.53,9211,10.75,73778.0,-5.49,-8.81,-8.71,0,*6C
1486645375.74,9212,10.75,73776.0,-5.49,-8.93,-8.71,0,*6C
1486645376.93,9213,10.81,73782.8,-5.51,-8.71,-8.67,0,*6F
1486645378.12,9214,10.75,73778.5,-5.51,-8.67,-8.59,0,*62
1486645379.32,9215,10.75,73772.0,-5.51,-9.01,-9.01,0,*6E
1486645380.55,9216,10.75,73772.3,-5.53,-9.05,-9.01,0,*6B
1486645381.77,9217,10.75,73774.0,-5.51,-8.93,-8.81,0,*6F
1486645382.98,9218,10.75,73772.8,-5.53,-8.75,-8.63,0,*66
1486645384.16,9219,10.81,73776.8,-5.51,-8.67,-8.55,0,*63
1486645385.36,9220,10.75,73776.5,-5.51,-8.71,-8.59,0,*62
1486645386.58,9221,10.81,73776.8,-5.53,-8.89,-8.75,0,*68
1486645387.81,9222,10.81,73778.0,-5.53,-9.01,-8.89,0,*69
1486645389.04,9223,10.81,73778.5,-5.53,-9.01,-9.05,0,*6D
1486645390.26,9224,10.81,73778.3,-5.53,-9.05,-9.05,0,*6E
1486645391.48,9225,10.81,73778.0,-5.53,-9.19,-9.19,0,*6F
1486645392.69,9226,10.81,73782.5,-5.55,-9.31,-9.41,0,*6D
1486645393.94,9227,10.81,73782.8,-5.55,-9.41,-9.41,0,*6B
1486645395.17,9228,10.75,73780.5,-5.57,-9.01,-8.89,0,*67
1486645396.38,9229,10.81,73782.0,-5.57,-9.23,-9.19,0,*6E
1486645397.63,9230,10.75,73778.5,-5.57,-9.05,-9.11,0,*6A
1486645398.81,9231,10.81,73778.5,-5.55,-8.75,-8.63,0,*6B
1486645400.04,9232,10.75,73776.5,-5.57,-8.93,-8.93,0,*6D
1486645401.28,9233,10.81,73780.8,-5.57,-9.11,-9.19,0,*64
1486645402.56,9234,10.75,73780.0,-5.61,-9.15,-9.11,0,*6A
1486645403.81,9235,10.81,73782.3,-5.61,-9.05,-9.11,0,*6A
1486645405.03,9236,10.81,73782.8,-5.61,-9.23,-9.23,0,*6C
1486645406.23,9237,10.75,73778.8,-5.63,-9.05,-8.97,0,*65
1486645407.5,9238,10.75,73780.0,-5.61,-9.15,-9.15,0,*62
1486645408.75,9239,10.75,73778.0,-5.61,-9.23,-9.15,0,*66
1486645409.94,9240,10.81,73780.3,-5.63,-8.97,-8.85,0,*6C
1486645411.17,9241,10.75,73778.3,-5.63,-9.05,-9.11,0,*6B
1486645412.37,9242,10.81,73782.8,-5.63,-8.93,-8.85,0,*6A
1486645413.56,9243,10.75,73780.8,-5.63,-8.67,-8.45,0,*6C
1486645414.78,9244,10.75,73782.0,-5.65,-8.71,-8.59,0,*67
1486645415.97,9245,10.81,73784.3,-5.63,-8.59,-8.41,0,*63
1486645417.16,9246,10.75,73782.3,-5.63,-8.55,-8.41,0,*6C
1486645418.36,9247,10.81,73786.8,-5.63,-8.71,-8.59,0,*62
1486645419.55,9248,10.75,73780.3,-5.63,-8.55,-8.45,0,*66
1486645420.74,9249,10.75,73780.3,-5.63,-8.71,-8.67,0,*61
1486645421.96,9250,10.81,73784.3,-5.65,-8.85,-8.63,0,*60
1486645423.17,9251,10.81,73782.5,-5.65,-8.75,-8.71,0,*6D
1486645424.41,9252,10.75,73782.3,-5.65,-8.63,-8.51,0,*6B
1486645425.6,9253,10.81,73784.8,-5.63,-8.33,-8.21,0,*6E
1486645426.79,9254,10.75,73784.3,-5.63,-8.45,-8.29,0,*60
1486645427.98,9255,10.81,73786.5,-5.63,-8.45,-8.33,0,*6A
1486645429.17,9256,10.75,73782.5,-5.63,-8.59,-8.55,0,*64
1486645430.36,9257,10.81,73786.8,-5.63,-8.45,-8.45,0,*69
1486645431.55,9258,10.81,73784.3,-5.63,-8.59,-8.55,0,*6A
1486645432.74,9259,10.81,73786.8,-5.63,-8.59,-8.59,0,*67
1486645433.94,9260,10.81,73784.3,-5.63,-8.81,-8.67,0,*65
1486645435.14,9261,10.75,73782.5,-5.63,-8.85,-8.71,0,*67
1486645436.34,9262,10.75,73782.0,-5.63,-8.45,-8.21,0,*6D
1486645437.52,9263,10.75,73780.8,-5.63,-8.45,-8.33,0,*6F
1486645438.74,9264,10.75,73780.3,-5.61,-8.41,-8.29,0,*65
1486645439.96,9265,10.81,73780.0,-5.61,-8.33,-8.21,0,*69
1486645441.15,9266,10.75,73776.3,-5.63,-8.41,-8.21,0,*6D
1486645442.35,9267,10.81,73782.8,-5.63,-8.55,-8.41,0,*6F
1486645443.54,9268,10.75,73782.8,-5.63,-8.45,-8.33,0,*64
1486645444.73,9269,10.81,73782.5,-5.63,-8.55,-8.45,0,*65
1486645445.95,9270,10.75,73780.5,-5.63,-8.81,-8.71,0,*63
1486645447.14,9271,10.75,73782.5,-5.63,-8.71,-8.71,0,*6D
1486645448.34,9272,10.75,73780.8,-5.63,-8.55,-8.45,0,*6F
1486645449.53,9273,10.75,73780.5,-5.63,-8.55,-8.33,0,*6F
1486645450.74,9274,10.81,73786.5,-5.61,-8.41,-8.33,0,*6F
1486645451.93,9275,10.75,73780.0,-5.63,-8.41,-8.17,0,*6A
1486645453.15,9276,10.81,73784.0,-5.61,-8.45,-8.29,0,*62
1486645454.35,9277,10.81,73780.5,-5.63,-8.45,-8.21,0,*69
1486645455.53,9278,10.75,73778.5,-5.63,-8.33,-8.29,0,*6F
1486645456.75,9279,10.75,73780.5,-5.61,-8.59,-8.33,0,*6B
1486645457.96,9280,10.75,73776.8,-5.61,-8.41,-8.33,0,*64
1486645459.19,9281,10.75,73774.8,-5.61,-8.55,-8.45,0,*61
1486645460.41,9282,10.81,73776.8,-5.61,-8.59,-8.45,0,*6E
1486645461.62,9283,10.75,73780.3,-5.61,-8.33,-8.21,0,*61
1486645462.84,9284,10.81,73782.8,-5.61,-8.41,-8.29,0,*6B
1486645464.06,9285,10.75,73776.8,-5.61,-8.59,-8.41,0,*6D
1486645465.28,9286,10.75,73776.3,-5.61,-8.55,-8.41,0,*62
1486645466.51,9287,10.81,73778.5,-5.61,-8.81,-8.67,0,*6E
1486645467.72,9288,10.81,73782.0,-5.57,-8.75,-8.63,0,*6B
1486645468.96,9289,10.75,73776.3,-5.57,-8.67,-8.51,0,*68
1486645470.19,9290,10.75,73778.0,-5.57,-8.55,-8.37,0,*61
1486645471.43,9291,10.81,73780.5,-5.57,-8.55,-8.51,0,*60
1486645472.68,9292,10.75,73778.5,-5.61,-8.85,-8.81,0,*66
1486645473.91,9293,10.75,73776.3,-5.61,-8.81,-8.67,0,*6B
1486645475.13,9294,10.81,73778.8,-5.61,-8.67,-8.45,0,*64
1486645476.35,9295,10.81,73784.3,-5.61,-8.55,-8.45,0,*64
1486645477.57,9296,10.75,73776.8,-5.61,-8.59,-8.41,0,*6F
1486645478.79,9297,10.81,73780.8,-5.57,-8.63,-8.41,0,*62
1486645480.03,9298,10.75,73778.8,-5.57,-8.63,-8.51,0,*6C
1486645481.24,9299,10.75,73778.0,-5.57,-8.75,-8.63,0,*6B
1486645482.48,9300,10.81,73782.8,-5.61,-8.81,-8.67,0,*60
1486645483.7,9301,10.75,73782.8,-5.61,-8.59,-8.45,0,*64
1486645484.91,9302,10.81,73784.0,-5.63,-8.81,-8.67,0,*60
1486645486.12,9303,10.81,73790.5,-5.61,-8.67,-8.67,0,*6B
1486645487.33,9304,10.75,73782.8,-5.61,-8.67,-8.59,0,*61
1486645488.52,9305,10.75,73784.5,-5.63,-8.59,-8.45,0,*62
1486645489.74,9306,10.81,73790.3,-5.61,-8.45,-8.29,0,*64
1486645490.96,9307,10.75,73786.5,-5.61,-8.55,-8.41,0,*6A
1486645492.16,9308,10.75,73786.8,-5.63,-8.59,-8.45,0,*6F
1486645493.38,9309,10.75,73778.8,-5.61,-8.41,-8.41,0,*61
1486645494.59,9310,10.81,73780.3,-5.61,-8.33,-8.29,0,*62
1486645495.8,9311,10.75,73776.8,-5.61,-8.33,-8.17,0,*6E
1486645497.05,9312,10.75,73780.5,-5.61,-8.21,-8.11,0,*68
1486645498.26,9313,10.75,73782.8,-5.61,-8.29,-8.17,0,*67
1486645499.48,9314,10.75,73776.8,-5.61,-8.45,-8.41,0,*69
1486645500.73,9315,10.81,73782.5,-5.57,-8.51,-8.37,0,*69
1486645501.95,9316,10.81,73786.0,-5.57,-8.25,-8.17,0,*6B
1486645503.16,9317,10.81,73786.5,-5.57,-8.41,-8.41,0,*6B
1486645504.38,9318,10.81,73786.0,-5.57,-8.41,-8.29,0,*6A
1486645505.57,9319,10.81,73786.5,-5.55,-8.37,-8.25,0,*64
1486645506.78,9320,10.81,73780.5,-5.57,-8.29,-8.17,0,*62
1486645508.02,9321,10.81,73782.3,-5.57,-8.37,-8.11,0,*6A
1486645509.27,9322,10.81,73786.5,-5.57,-8.17,-8.11,0,*6B
1486645510.48,9323,10.81,73784.5,-5.57,-8.37,-8.29,0,*63
1486645511.7,9324,10.81,73786.5,-5.57,-8.41,-8.29,0,*65
1486645512.91,9325,10.75,73786.3,-5.57,-8.41,-8.29,0,*64
1486645514.13,9326,10.75,73782.0,-5.57,-8.29,-8.17,0,*64
1486645515.37,9327,10.75,73780.5,-5.57,-8.29,-8.11,0,*63
1486645516.61,9328,10.81,73784.5,-5.57,-8.25,-8.11,0,*60
1486645517.83,9329,10.75,73778.3,-5.57,-8.41,-8.25,0,*64
1486645519.04,9330,10.75,73782.3,-5.57,-8.55,-8.41,0,*6B
1486645520.27,9331,10.75,73782.0,-5.55,-8.51,-8.37,0,*6D
1486645521.48,9332,10.75,73782.5,-5.57,-8.55,-8.41,0,*69
1486645522.69,9333,10.75,73780.0,-5.55,-8.81,-8.63,0,*63
1486645523.92,9334,10.81,73782.5,-5.57,-8.81,-8.75,0,*61
1486645525.17,9335,10.81,73782.5,-5.57,-8.63,-8.51,0,*6A
1486645526.38,9336,10.81,73784.8,-5.57,-8.67,-8.55,0,*69
1486645527.58,9337,10.81,73782.5,-5.57,-8.67,-8.55,0,*68
1486645528.79,9338,10.75,73780.8,-5.57,-8.67,-8.55,0,*67
1486645530.01,9339,10.75,73782.5,-5.57,-8.67,-8.41,0,*63
1486645531.22,9340,10.75,73784.8,-5.57,-8.75,-8.63,0,*6E
1486645532.46,9341,10.75,73782.8,-5.57,-8.51,-8.29,0,*67
1486645533.67,9342,10.75,73782.8,-5.57,-8.75,-8.67,0,*68
1486645534.9,9343,10.75,73780.0,-5.57,-8.81,-8.75,0,*61
1486645536.15,9344,10.75,73780.3,-5.57,-8.55,-8.51,0,*69
1486645537.36,9345,10.75,73780.3,-5.57,-8.55,-8.41,0,*69
1486645538.58,9346,10.81,73786.3,-5.61,-8.41,-8.29,0,*64
1486645539.8,9347,10.75,73780.0,-5.57,-8.63,-8.41,0,*6E
1486645540.99,9348,10.75,73782.8,-5.63,-8.45,-8.33,0,*67
1486645542.2,9349,10.75,73780.3,-5.61,-8.67,-8.55,0,*64
1486645543.42,9350,10.75,73782.8,-5.61,-8.45,-8.29,0,*67
1486645544.64,9351,10.81,73782.5,-5.61,-8.55,-8.41,0,*69
1486645545.86,9352,10.75,73778.8,-5.61,-8.59,-8.41,0,*66
1486645547.05,9353,10.75,73780.0,-5.63,-8.41,-8.21,0,*6A
1486645548.29,9354,10.81,73780.8,-5.61,-8.33,-8.11,0,*69
1486645549.51,9355,10.81,73778.0,-5.61,-8.45,-8.33,0,*69
1486645550.73,9356,10.81,73780.3,-5.61,-8.45,-8.33,0,*6A
1486645551.94,9357,10.75,73776.0,-5.57,-8.75,-8.63,0,*68
1486645553.15,9358,10.75,73780.3,-5.57,-8.67,-8.55,0,*61
1486645554.36,9359,10.75,73782.5,-5.57,-8.75,-8.63,0,*66
1486645555.58,9360,10.75,73784.0,-5.57,-9.01,-8.89,0,*6A
1486645556.81,9361,10.81,73784.8,-5.61,-8.97,-8.85,0,*6C
1486645558.04,9362,10.75,73784.0,-5.61,-8.81,-8.55,0,*65
1486645559.24,9363,10.81,73786.5,-5.63,-8.97,-8.85,0,*6C
1486645560.44,9364,10.81,73780.8,-5.63,-8.85,-8.71,0,*63
1486645561.62,9365,10.81,73784.5,-5.63,-8.67,-8.59,0,*64
1486645562.84,9366,10.81,73790.3,-5.61,-8.71,-8.67,0,*6F
1486645564.05,9367,10.75,73782.8,-5.63,-8.81,-8.67,0,*63
1486645565.28,9368,10.75,73784.8,-5.61,-8.81,-8.67,0,*6E
1486645566.5,9369,10.81,73786.3,-5.63,-8.85,-8.81,0,*61
1486645567.69,9370,10.81,73790.3,-5.63,-8.71,-8.55,0,*6B
1486645568.91,9371,10.75,73784.5,-5.61,-8.41,-8.33,0,*6B
1486645570.09,9372,10.81,73784.5,-5.63,-8.33,-8.29,0,*64
1486645571.28,9373,10.75,73780.5,-5.63,-8.59,-8.55,0,*62
1486645572.5,9374,10.75,73784.0,-5.61,-8.59,-8.41,0,*62
1486645573.68,9375,10.75,73782.0,-5.63,-8.59,-8.33,0,*64
1486645574.87,9376,10.75,73782.3,-5.63,-8.67,-8.55,0,*6A
1486645576.09,9377,10.81,73786.0,-5.61,-8.67,-8.45,0,*68
1486645577.28,9378,10.75,73780.8,-5.63,-8.41,-8.33,0,*60
1486645578.46,9379,10.75,73782.8,-5.63,-8.67,-8.55,0,*65
1486645579.67,9380,10.75,73786.0,-5.63,-8.81,-8.59,0,*67
1486645580.86,9381,10.81,73784.0,-5.63,-8.59,-8.41,0,*6A
1486645582.05,9382,10.75,73780.3,-5.63,-8.45,-8.33,0,*61
1486645583.24,9383,10.75,73780.0,-5.63,-8.71,-8.55,0,*67
1486645584.44,9384,10.75,73780.3,-5.63,-8.71,-8.59,0,*6C
1486645585.63,9385,10.75,73780.8,-5.63,-8.41,-8.29,0,*69
1486645586.83,9386,10.81,73784.3,-5.63,-8.55,-8.45,0,*65
1486645588.02,9387,10.81,73782.3,-5.63,-8.41,-8.29,0,*6B
1486645589.2,9388,10.75,73786.3,-5.63,-8.59,-8.33,0,*66
1486645590.41,9389,10.81,73788.5,-5.63,-8.81,-8.55,0,*62
1486645591.61,9390,10.81,73786.0,-5.63,-8.97,-8.85,0,*60
1486645592.82,9391,10.81,73786.0,-5.63,-8.81,-8.67,0,*6A
1486645594.01,9392,10.75,73780.8,-5.63,-8.93,-8.71,0,*6D
1486645595.23,9393,10.81,73782.5,-5.61,-8.85,-8.71,0,*69
1486645596.47,9394,10.81,73782.8,-5.63,-8.81,-8.81,0,*67
1486645597.69,9395,10.81,73786.5,-5.65,-8.97,-8.85,0,*63
1486645598.93,9396,10.75,73784.3,-5.65,-9.11,-8.97,0,*6C
1486645600.12,9397,10.75,73782.0,-5.67,-8.85,-8.63,0,*68
1486645601.37,9398,10.75,73782.3,-5.65,-8.85,-8.51,0,*64
1486645602.6,9399,10.81,73782.8,-5.65,-8.71,-8.37,0,*6E
1486645603.81,9400,10.75,73780.0,-5.65,-8.63,-8.45,0,*6F
1486645605.03,9401,10.75,73782.0,-5.65,-8.75,-8.59,0,*64
1486645606.27,9402,10.81,73786.0,-5.65,-8.71,-8.51,0,*6B
1486645607.49,9403,10.81,73786.0,-5.65,-8.85,-8.59,0,*69
1486645608.73,9404,10.81,73788.3,-5.65,-8.85,-8.51,0,*66
1486645609.93,9405,10.75,73784.3,-5.63,-8.71,-8.33,0,*6E
1486645611.17,9406,10.81,73792.0,-5.65,-8.71,-8.51,0,*6F
1486645612.37,9407,10.81,73786.5,-5.63,-8.71,-8.45,0,*6D
1486645613.57,9408,10.81,73784.3,-5.63,-8.55,-8.21,0,*66
1486645614.77,9409,10.75,73778.0,-5.63,-8.71,-8.45,0,*63
1486645615.96,9410,10.81,73782.3,-5.63,-8.93,-8.67,0,*67
1486645617.18,9411,10.81,73780.5,-5.65,-9.01,-8.85,0,*66
1486645618.4,9412,10.81,73782.8,-5.63,-8.93,-8.81,0,*6D
1486645619.62,9413,10.75,73778.0,-5.65,-8.89,-8.75,0,*6A
1486645620.84,9414,10.75,73778.3,-5.65,-9.01,-8.85,0,*63
1486645622.07,9415,10.81,73782.5,-5.67,-9.15,-9.01,0,*68
1486645623.3,9416,10.75,73782.0,-5.65,-9.01,-8.89,0,*6D
1486645624.52,9417,10.81,73782.3,-5.67,-9.15,-9.01,0,*6A
1486645625.74,9418,10.75,73782.0,-5.65,-8.89,-8.75,0,*61
1486645626.99,9419,10.81,73786.0,-5.65,-9.11,-8.89,0,*63
1486645628.2,9420,10.75,73782.5,-5.65,-8.85,-8.59,0,*68
1486645629.4,9421,10.75,73784.0,-5.67,-8.63,-8.37,0,*6B
1486645630.59,9422,10.81,73784.5,-5.67,-8.59,-8.45,0,*64
1486645631.81,9423,10.75,73784.0,-5.65,-8.45,-8.37,0,*6F
1486645633.0,9424,10.81,73782.8,-5.67,-8.71,-8.59,0,*65
1486645634.21,9425,10.75,73780.0,-5.65,-8.97,-8.75,0,*60
1486645635.39,9426,10.81,73780.8,-5.67,-8.75,-8.63,0,*6A
1486645636.59,9427,10.75,73784.3,-5.67,-8.85,-8.71,0,*67
1486645637.83,9428,10.75,73780.8,-5.65,-8.71,-8.51,0,*63
1486645639.08,9429,10.81,73784.3,-5.65,-8.71,-8.51,0,*62
1486645640.3,9430,10.75,73786.0,-5.65,-8.63,-8.37,0,*69
1486645641.49,9431,10.81,73786.5,-5.67,-8.71,-8.63,0,*68
1486645642.68,9432,10.81,73784.5,-5.67,-8.71,-8.63,0,*6B
1486645643.89,9433,10.81,73786.8,-5.65,-8.59,-8.33,0,*67
1486645645.1,9434,10.75,73786.0,-5.65,-8.85,-8.63,0,*64
1486645646.32,9435,10.81,73784.3,-5.67,-8.71,-8.51,0,*6D
1486645647.54,9436,10.81,73788.8,-5.67,-8.71,-8.51,0,*6E
1486645648.76,9437,10.81,73786.3,-5.65,-8.85,-8.59,0,*6E
1486645649.97,9438,10.75,73782.8,-5.65,-8.63,-8.45,0,*64
1486645651.19,9439,10.75,73784.5,-5.65,-8.59,-8.45,0,*6C
1486645652.4,9440,10.75,73782.5,-5.65,-8.59,-8.59,0,*6F
1486645653.64,9441,10.81,73788.0,-5.65,-8.71,-8.51,0,*6C
1486645654.86,9442,10.81,73784.3,-5.67,-8.71,-8.51,0,*6D
1486645656.08,9443,10.75,73782.5,-5.65,-8.85,-8.75,0,*63
1486645657.28,9444,10.75,73780.3,-5.67,-8.63,-8.37,0,*68
1486645658.5,9445,10.81,73780.5,-5.65,-8.71,-8.37,0,*68
1486645659.72,9446,10.75,73780.0,-5.65,-8.85,-8.63,0,*61
1486645660.94,9447,10.81,73782.5,-5.65,-8.85,-8.63,0,*60
1486645662.15,9448,10.81,73784.0,-5.65,-8.75,-8.45,0,*64
1486645663.37,9449,10.81,73786.3,-5.65,-8.85,-8.59,0,*67
1486645664.59,9450,10.81,73786.3,-5.63,-9.05,-8.81,0,*65
1486645665.8,9451,10.81,73788.0,-5.65,-9.01,-8.75,0,*6D
1486645667.02,9452,10.81,73788.8,-5.65,-8.75,-8.45,0,*6F
1486645668.21,9453,10.75,73784.0,-5.63,-8.55,-8.29,0,*60
1486645669.41,9454,10.75,73784.0,-5.63,-8.45,-8.21,0,*6E
1486645670.62,9455,10.75,73786.0,-5.63,-8.81,-8.41,0,*61
1486645671.84,9456,10.75,73784.0,-5.65,-8.75,-8.45,0,*6B
1486645673.03,9457,10.75,73784.5,-5.63,-8.93,-8.59,0,*69
1486645674.25,9458,10.81,73784.3,-5.65,-8.89,-8.59,0,*6B
1486645675.49,9459,10.75,73780.5,-5.65,-8.85,-8.51,0,*6E
1486645676.71,9460,10.81,73788.3,-5.65,-8.63,-8.37,0,*6C
1486645677.96,9461,10.81,73784.3,-5.65,-8.85,-8.51,0,*65
1486645679.15,9462,10.75,73784.8,-5.63,-8.59,-8.29,0,*6E
1486645680.36,9463,10.81,73786.3,-5.63,-8.81,-8.55,0,*61
1486645681.55,9464,10.81,73786.8,-5.63,-8.59,-8.29,0,*68
1486645682.78,9465,10.75,73784.3,-5.61,-8.81,-8.55,0,*65
1486645683.99,9466,10.81,73786.5,-5.63,-8.81,-8.55,0,*64
1486645685.22,9467,10.81,73784.3,-5.61,-8.71,-8.41,0,*6D
1486645686.4,9468,10.75,73782.0,-5.63,-8.59,-8.33,0,*6F
1486645687.59,9469,10.81,73782.5,-5.63,-8.93,-8.67,0,*69
1486645688.82,9470,10.81,73784.0,-5.61,-8.71,-8.45,0,*6F
1486645690.02,9471,10.75,73780.3,-5.63,-8.71,-8.45,0,*6C
1486645691.21,9472,10.81,73782.5,-5.63,-8.67,-8.41,0,*6C
1486645692.46,9473,10.81,73782.5,-5.61,-8.81,-8.45,0,*63
1486645693.7,9474,10.75,73780.3,-5.61,-8.81,-8.45,0,*64
1486645694.92,9475,10.75,73780.5,-5.61,-8.93,-8.55,0,*67
1486645696.13,9476,10.81,73784.5,-5.57,-8.89,-8.67,0,*6B
1486645697.37,9477,10.81,73786.3,-5.61,-8.97,-8.81,0,*68
1486645698.61,9478,10.81,73784.5,-5.61,-8.81,-8.55,0,*69
1486645699.84,9479,10.75,73780.8,-5.61,-8.81,-8.55,0,*68
1486645701.07,9480,10.81,73782.5,-5.61,-8.71,-8.41,0,*64
1486645702.31,9481,10.75,73782.5,-5.61,-8.81,-8.45,0,*6E
1486645703.53,9482,10.81,73786.5,-5.61,-8.71,-8.33,0,*63
1486645704.77,9483,10.75,73780.5,-5.61,-8.81,-8.55,0,*6D
1486645705.99,9484,10.75,73782.0,-5.57,-8.63,-8.37,0,*67
1486645707.2,9485,10.81,73786.3,-5.57,-8.67,-8.41,0,*63
1486645708.4,9486,10.75,73782.0,-5.55,-8.63,-8.37,0,*67
1486645709.66,9487,10.75,73786.0,-5.57,-8.81,-8.51,0,*68
1486645710.87,9488,10.75,73786.3,-5.55,-8.81,-8.63,0,*64